ZA-AEROSAT

Last updated on Sat Jun 01 2019 00:02:08 GMT+0000 (Coordinated Universal Time)

1 42713U 98067LU 19151.03730059 .02928871 12128-4 58594-3 0 9990 2 42713 51.6172 356.2792 0012791 275.7272 84.2292 16.30383675116521

Satellite not in orbit